Time,TemperatureF,DewpointF,PressureIn,WindDirection,WindDirectionDegrees,WindSpeedMPH,WindSpeedGustMPH,Humidity,HourlyPrecipIn,Conditions,Clouds,dailyrainin,SoftwareType,DateUTC
2013-05-16 00:14:00,74.3,62.0,29.83,SSE,152,4.0,6.0,65,0.00,,,0.00,weatherlink.com 1.10,2013-05-16 05:14:00,
2013-05-16 00:29:00,74.4,62.0,29.84,SSE,164,2.0,8.0,66,0.00,,,0.00,weatherlink.com 1.10,2013-05-16 05:29:00,
2013-05-16 00:44:00,74.4,62.0,29.84,SW,224,3.0,8.0,66,0.00,,,0.00,weatherlink.com 1.10,2013-05-16 05:44:00,
2013-05-16 00:59:00,74.3,62.0,29.84,WNW,285,2.0,7.0,66,0.00,,,0.00,weatherlink.com 1.10,2013-05-16 05:59:00,
2013-05-16 01:14:00,74.0,62.0,29.84,SW,228,0.0,3.0,67,0.00,,,0.00,weatherlink.com 1.10,2013-05-16 06:14:00,
2013-05-16 01:29:00,73.8,62.0,29.84,SSW,211,1.0,3.0,67,0.00,,,0.00,weatherlink.com 1.10,2013-05-16 06:29:00,
2013-05-16 01:44:00,73.7,62.0,29.84,WSW,256,3.0,4.0,67,0.00,,,0.00,weatherlink.com 1.10,2013-05-16 06:44:00,
2013-05-16 01:59:00,73.4,62.0,29.84,SSW,208,0.0,6.0,68,0.00,,,0.00,weatherlink.com 1.10,2013-05-16 06:59:00,
2013-05-16 02:14:00,72.9,62.0,29.83,SSW,199,0.0,5.0,69,0.00,,,0.00,weatherlink.com 1.10,2013-05-16 07:14:00,
2013-05-16 02:29:00,72.7,62.0,29.83,SW,231,3.0,5.0,69,0.00,,,0.00,weatherlink.com 1.10,2013-05-16 07:29:00,
2013-05-16 02:44:00,72.4,62.0,29.82,SSE,157,2.0,8.0,70,0.00,,,0.00,weatherlink.com 1.10,2013-05-16 07:44:00,
2013-05-16 02:59:00,72.1,62.0,29.83,WSW,248,1.0,6.0,70,0.00,,,0.00,weatherlink.com 1.10,2013-05-16 07:59:00,
2013-05-16 03:14:00,71.9,62.0,29.83,South,176,0.0,4.0,71,0.00,,,0.00,weatherlink.com 1.10,2013-05-16 08:14:00,
2013-05-16 03:29:00,71.5,62.0,29.84,South,176,0.0,2.0,72,0.00,,,0.00,weatherlink.com 1.10,2013-05-16 08:29:00,
2013-05-16 03:44:00,71.1,62.0,29.84,SSW,210,0.0,3.0,73,0.00,,,0.00,weatherlink.com 1.10,2013-05-16 08:44:00,
2013-05-16 03:59:00,71.2,63.0,29.85,SW,226,2.0,6.0,74,0.00,,,0.00,weatherlink.com 1.10,2013-05-16 08:59:00,
2013-05-16 04:14:00,71.2,63.0,29.85,WSW,239,1.0,7.0,75,0.00,,,0.00,weatherlink.com 1.10,2013-05-16 09:14:00,
2013-05-16 04:29:00,71.2,63.0,29.85,SW,215,1.0,4.0,75,0.00,,,0.00,weatherlink.com 1.10,2013-05-16 09:29:00,
2013-05-16 04:44:00,71.3,63.0,29.86,WSW,243,3.0,8.0,75,0.00,,,0.00,weatherlink.com 1.10,2013-05-16 09:44:00,
2013-05-16 04:59:00,71.0,63.0,29.86,South,183,0.0,6.0,76,0.00,,,0.00,weatherlink.com 1.10,2013-05-16 09:59:00,
2013-05-16 05:14:00,70.7,63.0,29.86,SW,233,0.0,5.0,76,0.00,,,0.00,weatherlink.com 1.10,2013-05-16 10:14:00,
2013-05-16 05:29:00,70.4,63.0,29.87,WSW,237,1.0,4.0,76,0.00,,,0.00,weatherlink.com 1.10,2013-05-16 10:29:00,
2013-05-16 05:44:00,70.2,62.0,29.88,South,179,0.0,5.0,76,0.00,,,0.00,weatherlink.com 1.10,2013-05-16 10:44:00,
2013-05-16 05:59:00,70.1,62.0,29.89,South,179,2.0,5.0,76,0.00,,,0.00,weatherlink.com 1.10,2013-05-16 10:59:00,
2013-05-16 06:14:00,69.9,62.0,29.89,SW,233,1.0,6.0,76,0.00,,,0.00,weatherlink.com 1.10,2013-05-16 11:14:00,
2013-05-16 06:29:00,69.8,62.0,29.90,SW,223,2.0,7.0,76,0.00,,,0.00,weatherlink.com 1.10,2013-05-16 11:29:00,
2013-05-16 06:45:00,69.6,62.0,29.89,SSE,162,0.0,5.0,76,0.00,,,0.00,weatherlink.com 1.10,2013-05-16 11:45:00,
2013-05-16 07:00:00,69.5,62.0,29.90,SSE,168,0.0,4.0,77,0.00,,,0.00,weatherlink.com 1.10,2013-05-16 12:00:00,
2013-05-16 07:15:00,69.0,63.0,29.90,SSW,198,0.0,4.0,80,0.00,,,0.00,weatherlink.com 1.10,2013-05-16 12:15:00,
2013-05-16 07:30:00,68.5,63.0,29.90,SSW,199,1.0,3.0,83,0.00,,,0.00,weatherlink.com 1.10,2013-05-16 12:30:00,
2013-05-16 07:45:00,68.8,63.0,29.91,West,270,1.0,3.0,82,0.00,,,0.00,weatherlink.com 1.10,2013-05-16 12:45:00,
2013-05-16 08:00:00,69.4,63.0,29.91,West,270,2.0,3.0,81,0.00,,,0.00,weatherlink.com 1.10,2013-05-16 13:00:00,
2013-05-16 08:15:00,69.5,63.0,29.91,West,270,1.0,2.0,81,0.00,,,0.00,weatherlink.com 1.10,2013-05-16 13:15:00,
2013-05-16 08:30:00,69.9,63.0,29.91,SSE,154,1.0,5.0,79,0.00,,,0.00,weatherlink.com 1.10,2013-05-16 13:30:00,
2013-05-16 08:45:00,70.3,63.0,29.91,WSW,245,0.0,5.0,78,0.00,,,0.00,weatherlink.com 1.10,2013-05-16 13:45:00,
2013-05-16 09:00:00,70.8,64.0,29.91,SSE,164,0.0,1.0,78,0.00,,,0.00,weatherlink.com 1.10,2013-05-16 14:00:00,
2013-05-16 09:15:00,71.5,64.0,29.91,SW,230,1.0,4.0,76,0.00,,,0.00,weatherlink.com 1.10,2013-05-16 14:15:00,
2013-05-16 09:30:00,74.1,63.0,29.91,South,191,6.0,10.0,68,0.00,,,0.00,weatherlink.com 1.10,2013-05-16 14:30:00,
2013-05-16 09:45:00,74.2,62.0,29.91,SSW,206,8.0,13.0,65,0.00,,,0.00,weatherlink.com 1.10,2013-05-16 14:45:00,
2013-05-16 10:00:00,73.7,62.0,29.91,WNW,291,2.0,17.0,66,0.00,,,0.00,weatherlink.com 1.10,2013-05-16 15:00:00,
2013-05-16 10:15:00,74.5,62.0,29.91,West,270,7.0,14.0,66,0.00,,,0.00,weatherlink.com 1.10,2013-05-16 15:15:00,
2013-05-16 10:30:00,75.4,62.0,29.91,WSW,240,4.0,11.0,64,0.00,,,0.00,weatherlink.com 1.10,2013-05-16 15:30:00,
2013-05-16 10:45:00,75.9,62.0,29.91,SSW,198,5.0,9.0,62,0.00,,,0.00,weatherlink.com 1.10,2013-05-16 15:45:00,
2013-05-16 11:00:00,75.9,60.0,29.91,SW,231,2.0,9.0,59,0.00,,,0.00,weatherlink.com 1.10,2013-05-16 16:00:00,
2013-05-16 11:15:00,76.8,59.0,29.91,WSW,249,2.0,16.0,55,0.00,,,0.00,weatherlink.com 1.10,2013-05-16 16:15:00,
2013-05-16 11:30:00,77.9,61.0,29.91,South,174,3.0,12.0,56,0.00,,,0.00,weatherlink.com 1.10,2013-05-16 16:30:00,
2013-05-16 11:45:00,78.2,60.0,29.91,WSW,254,6.0,14.0,54,0.00,,,0.00,weatherlink.com 1.10,2013-05-16 16:45:00,
2013-05-16 12:00:00,78.5,60.0,29.90,WSW,253,8.0,11.0,53,0.00,,,0.00,weatherlink.com 1.10,2013-05-16 17:00:00,
2013-05-16 12:15:00,78.2,59.0,29.90,SW,235,5.0,12.0,52,0.00,,,0.00,weatherlink.com 1.10,2013-05-16 17:15:00,
2013-05-16 12:30:00,79.4,60.0,29.89,South,181,2.0,10.0,51,0.00,,,0.00,weatherlink.com 1.10,2013-05-16 17:30:00,
2013-05-16 12:45:00,79.8,59.0,29.89,West,278,6.0,8.0,50,0.00,,,0.00,weatherlink.com 1.10,2013-05-16 17:45:00,
2013-05-16 13:00:00,80.4,59.0,29.88,SSW,200,7.0,11.0,48,0.00,,,0.00,weatherlink.com 1.10,2013-05-16 18:00:00,
2013-05-16 13:15:00,80.0,59.0,29.88,SW,225,4.0,13.0,49,0.00,,,0.00,weatherlink.com 1.10,2013-05-16 18:15:00,
2013-05-16 13:30:00,80.7,60.0,29.87,West,269,4.0,10.0,49,0.00,,,0.00,weatherlink.com 1.10,2013-05-16 18:30:00,
2013-05-16 13:45:00,80.7,59.0,29.87,SW,218,5.0,11.0,48,0.00,,,0.00,weatherlink.com 1.10,2013-05-16 18:45:00,
2013-05-16 14:00:00,81.1,61.0,29.87,South,187,8.0,8.0,50,0.00,,,0.00,weatherlink.com 1.10,2013-05-16 19:00:00,
2013-05-16 14:15:00,81.2,60.0,29.87,SSE,147,4.0,9.0,48,0.00,,,0.00,weatherlink.com 1.10,2013-05-16 19:15:00,
2013-05-16 14:30:00,81.3,60.0,29.86,SSW,192,0.0,7.0,49,0.00,,,0.00,weatherlink.com 1.10,2013-05-16 19:30:00,
2013-05-16 14:45:00,80.7,59.0,29.86,SW,224,5.0,12.0,48,0.00,,,0.00,weatherlink.com 1.10,2013-05-16 19:45:00,
2013-05-16 15:00:00,80.4,59.0,29.86,SW,215,4.0,11.0,49,0.00,,,0.00,weatherlink.com 1.10,2013-05-16 20:00:00,
2013-05-16 15:15:00,80.0,60.0,29.86,WSW,256,4.0,9.0,50,0.00,,,0.00,weatherlink.com 1.10,2013-05-16 20:15:00,
2013-05-16 15:30:00,79.9,61.0,29.86,SW,233,7.0,10.0,52,0.00,,,0.00,weatherlink.com 1.10,2013-05-16 20:30:00,
2013-05-16 15:45:00,79.6,61.0,29.86,WSW,240,2.0,7.0,54,0.00,,,0.00,weatherlink.com 1.10,2013-05-16 20:45:00,
2013-05-16 16:00:00,79.0,61.0,29.86,West,260,0.0,8.0,55,0.00,,,0.00,weatherlink.com 1.10,2013-05-16 21:00:00,
2013-05-16 16:15:00,78.9,62.0,29.85,SE,145,1.0,6.0,57,0.00,,,0.00,weatherlink.com 1.10,2013-05-16 21:15:00,
2013-05-16 16:30:00,78.8,62.0,29.85,West,265,5.0,7.0,56,0.00,,,0.00,weatherlink.com 1.10,2013-05-16 21:30:00,
2013-05-16 16:45:00,79.4,62.0,29.85,SSW,201,2.0,6.0,56,0.00,,,0.00,weatherlink.com 1.10,2013-05-16 21:45:00,
2013-05-16 17:00:00,79.2,63.0,29.85,WSW,245,2.0,7.0,57,0.00,,,0.00,weatherlink.com 1.10,2013-05-16 22:00:00,
2013-05-16 17:15:00,78.8,63.0,29.85,West,266,1.0,5.0,58,0.00,,,0.00,weatherlink.com 1.10,2013-05-16 22:15:00,
2013-05-16 17:30:00,78.7,63.0,29.85,South,184,1.0,3.0,58,0.00,,,0.00,weatherlink.com 1.10,2013-05-16 22:30:00,
2013-05-16 17:45:00,78.4,63.0,29.84,WSW,245,0.0,5.0,60,0.00,,,0.00,weatherlink.com 1.10,2013-05-16 22:45:00,
2013-05-16 18:00:00,77.9,63.0,29.84,WSW,239,0.0,4.0,60,0.00,,,0.00,weatherlink.com 1.10,2013-05-16 23:00:00,
2013-05-16 18:15:00,77.6,63.0,29.84,WSW,239,0.0,4.0,61,0.00,,,0.00,weatherlink.com 1.10,2013-05-16 23:15:00,
2013-05-16 18:30:00,77.7,62.0,29.84,SSE,152,3.0,7.0,59,0.00,,,0.00,weatherlink.com 1.10,2013-05-16 23:30:00,
2013-05-16 18:45:00,77.6,62.0,29.84,South,184,0.0,5.0,58,0.00,,,0.00,weatherlink.com 1.10,2013-05-16 23:45:00,
2013-05-16 19:00:00,77.3,61.0,29.84,South,174,0.0,4.0,57,0.00,,,0.00,weatherlink.com 1.10,2013-05-17 00:00:00,
2013-05-16 19:15:00,77.0,60.0,29.84,South,175,0.0,2.0,57,0.00,,,0.00,weatherlink.com 1.10,2013-05-17 00:15:00,
2013-05-16 19:30:00,76.6,61.0,29.84,South,175,2.0,3.0,58,0.00,,,0.00,weatherlink.com 1.10,2013-05-17 00:30:00,
2013-05-16 19:45:00,76.1,61.0,29.84,South,175,0.0,2.0,59,0.00,,,0.00,weatherlink.com 1.10,2013-05-17 00:45:00,
2013-05-16 20:00:00,75.7,61.0,29.84,South,175,0.0,1.0,60,0.00,,,0.00,weatherlink.com 1.10,2013-05-17 01:00:00,
2013-05-16 20:15:00,74.9,61.0,29.85,South,175,0.0,0.0,63,0.00,,,0.00,weatherlink.com 1.10,2013-05-17 01:15:00,
2013-05-16 20:30:00,74.1,62.0,29.84,South,175,0.0,0.0,65,0.00,,,0.00,weatherlink.com 1.10,2013-05-17 01:30:00,
2013-05-16 20:45:00,73.9,62.0,29.84,South,175,0.0,0.0,66,0.00,,,0.00,weatherlink.com 1.10,2013-05-17 01:45:00,
2013-05-16 21:00:00,73.7,62.0,29.85,South,175,0.0,1.0,66,0.00,,,0.00,weatherlink.com 1.10,2013-05-17 02:00:00,
2013-05-16 21:15:00,73.7,62.0,29.85,South,175,0.0,2.0,67,0.00,,,0.00,weatherlink.com 1.10,2013-05-17 02:15:00,
2013-05-16 21:30:00,73.6,62.0,29.85,South,174,0.0,3.0,67,0.00,,,0.00,weatherlink.com 1.10,2013-05-17 02:30:00,
2013-05-16 21:45:00,72.8,62.0,29.86,South,174,0.0,0.0,69,0.00,,,0.00,weatherlink.com 1.10,2013-05-17 02:45:00,
2013-05-16 22:00:00,71.8,62.0,29.86,South,174,0.0,0.0,71,0.00,,,0.00,weatherlink.com 1.10,2013-05-17 03:00:00,
2013-05-16 22:15:00,71.3,62.0,29.85,South,174,0.0,2.0,72,0.00,,,0.00,weatherlink.com 1.10,2013-05-17 03:15:00,
2013-05-16 22:30:00,71.0,62.0,29.86,South,174,0.0,1.0,72,0.00,,,0.00,weatherlink.com 1.10,2013-05-17 03:30:00,
2013-05-16 22:45:00,70.8,62.0,29.86,South,174,0.0,1.0,73,0.00,,,0.00,weatherlink.com 1.10,2013-05-17 03:45:00,
2013-05-16 23:00:00,70.8,62.0,29.86,SE,145,0.0,5.0,74,0.00,,,0.00,weatherlink.com 1.10,2013-05-17 04:00:00,
2013-05-16 23:15:00,70.9,62.0,29.87,SSE,148,0.0,3.0,74,0.00,,,0.00,weatherlink.com 1.10,2013-05-17 04:15:00,
2013-05-16 23:30:00,70.6,62.0,29.87,South,175,3.0,4.0,75,0.00,,,0.00,weatherlink.com 1.10,2013-05-17 04:30:00,
2013-05-16 23:45:00,70.1,62.0,29.88,South,182,0.0,3.0,76,0.00,,,0.00,weatherlink.com 1.10,2013-05-17 04:45:00,